Year,Month,Day,Hour,Minute,Value (Times are PST for temperature in C)
2008,09,17,00,00,15.70
2008,09,17,00,01,15.70
2008,09,17,00,02,15.70
2008,09,17,00,03,15.70
2008,09,17,00,04,15.70
2008,09,17,00,05,15.70
2008,09,17,00,06,15.70
2008,09,17,00,07,15.70
2008,09,17,00,08,15.70
2008,09,17,00,09,15.70
2008,09,17,00,10,15.70
2008,09,17,00,11,15.70
2008,09,17,00,12,15.80
2008,09,17,00,13,15.80
2008,09,17,00,14,15.80
2008,09,17,00,15,15.90
2008,09,17,00,16,16.00
2008,09,17,00,17,16.00
2008,09,17,00,18,16.10
2008,09,17,00,19,16.10
2008,09,17,00,20,16.10
2008,09,17,00,21,16.10
2008,09,17,00,22,16.10
2008,09,17,00,23,16.10
2008,09,17,00,24,16.10
2008,09,17,00,25,16.10
2008,09,17,00,26,16.10
2008,09,17,00,27,16.10
2008,09,17,00,28,16.10
2008,09,17,00,29,16.10
2008,09,17,00,30,16.10
2008,09,17,00,31,16.10
2008,09,17,00,32,16.00
2008,09,17,00,33,16.00
2008,09,17,00,34,15.90
2008,09,17,00,35,15.90
2008,09,17,00,36,15.90
2008,09,17,00,37,15.90
2008,09,17,00,38,15.90
2008,09,17,00,39,15.90
2008,09,17,00,40,15.80
2008,09,17,00,41,15.80
2008,09,17,00,42,15.80
2008,09,17,00,43,15.80
2008,09,17,00,44,15.80
2008,09,17,00,45,15.80
2008,09,17,00,46,15.80
2008,09,17,00,47,15.70
2008,09,17,00,48,15.70
2008,09,17,00,49,15.70
2008,09,17,00,50,15.70
2008,09,17,00,51,15.60
2008,09,17,00,52,15.60
2008,09,17,00,53,15.60
2008,09,17,00,54,15.60
2008,09,17,00,55,15.50
2008,09,17,00,56,15.50
2008,09,17,00,57,15.50
2008,09,17,00,58,15.40
2008,09,17,00,59,15.40
2008,09,17,01,00,15.40
2008,09,17,01,01,15.40
2008,09,17,01,02,15.30
2008,09,17,01,03,15.30
2008,09,17,01,04,15.30
2008,09,17,01,05,15.30
2008,09,17,01,06,15.20
2008,09,17,01,07,15.20
2008,09,17,01,08,15.20
2008,09,17,01,09,15.20
2008,09,17,01,10,15.20
2008,09,17,01,11,15.30
2008,09,17,01,12,15.30
2008,09,17,01,13,15.30
2008,09,17,01,14,15.30
2008,09,17,01,15,15.30
2008,09,17,01,16,15.30
2008,09,17,01,17,15.30
2008,09,17,01,18,15.30
2008,09,17,01,19,15.30
2008,09,17,01,20,15.30
2008,09,17,01,21,15.30
2008,09,17,01,22,15.30
2008,09,17,01,23,15.30
2008,09,17,01,24,15.30
2008,09,17,01,25,15.30
2008,09,17,01,26,15.40
2008,09,17,01,27,15.40
2008,09,17,01,28,15.40
2008,09,17,01,29,15.40
2008,09,17,01,30,15.40
2008,09,17,01,31,15.50
2008,09,17,01,32,15.50
2008,09,17,01,33,15.50
2008,09,17,01,34,15.50
2008,09,17,01,35,15.60
2008,09,17,01,36,15.60
2008,09,17,01,37,15.60
2008,09,17,01,38,15.60
2008,09,17,01,39,15.60
2008,09,17,01,40,15.60
2008,09,17,01,41,15.60
2008,09,17,01,42,15.60
2008,09,17,01,43,15.60
2008,09,17,01,44,15.60
2008,09,17,01,45,15.60
2008,09,17,01,46,15.60
2008,09,17,01,47,15.60
2008,09,17,01,48,15.60
2008,09,17,01,49,15.50
2008,09,17,01,50,15.50
2008,09,17,01,51,15.40
2008,09,17,01,52,15.40
2008,09,17,01,53,15.40
2008,09,17,01,54,15.30
2008,09,17,01,55,15.30
2008,09,17,01,56,15.30
2008,09,17,01,57,15.20
2008,09,17,01,58,15.20
2008,09,17,01,59,15.20
2008,09,17,02,00,15.20
2008,09,17,02,01,15.20
2008,09,17,02,02,15.20
2008,09,17,02,03,15.10
2008,09,17,02,04,15.10
2008,09,17,02,05,15.10
2008,09,17,02,06,15.00
2008,09,17,02,07,15.00
2008,09,17,02,08,15.00
2008,09,17,02,09,15.00
2008,09,17,02,10,15.00
2008,09,17,02,11,15.00
2008,09,17,02,12,15.00
2008,09,17,02,13,15.00
2008,09,17,02,14,15.00
2008,09,17,02,15,15.00
2008,09,17,02,16,15.00
2008,09,17,02,17,15.00
2008,09,17,02,18,15.00
2008,09,17,02,19,15.00
2008,09,17,02,20,15.00
2008,09,17,02,21,15.00
2008,09,17,02,22,15.00
2008,09,17,02,23,15.00
2008,09,17,02,24,15.00
2008,09,17,02,25,15.00
2008,09,17,02,26,15.00
2008,09,17,02,27,15.00
2008,09,17,02,28,15.00
2008,09,17,02,29,15.00
2008,09,17,02,30,15.00
2008,09,17,02,31,15.00
2008,09,17,02,32,15.00
2008,09,17,02,33,15.00
2008,09,17,02,34,15.00
2008,09,17,02,35,15.00
2008,09,17,02,36,15.00
2008,09,17,02,37,15.00
2008,09,17,02,38,15.00
2008,09,17,02,39,15.00
2008,09,17,02,40,15.00
2008,09,17,02,41,15.00
2008,09,17,02,42,15.00
2008,09,17,02,43,15.00
2008,09,17,02,44,15.00
2008,09,17,02,45,15.00
2008,09,17,02,46,15.10
2008,09,17,02,47,15.10
2008,09,17,02,48,15.20
2008,09,17,02,49,15.20
2008,09,17,02,50,15.20
2008,09,17,02,51,15.20
2008,09,17,02,52,15.20
2008,09,17,02,53,15.20
2008,09,17,02,54,15.10
2008,09,17,02,55,15.10
2008,09,17,02,56,15.00
2008,09,17,02,57,15.00
2008,09,17,02,58,15.00
2008,09,17,02,59,15.00
2008,09,17,03,00,15.00
2008,09,17,03,01,15.00
2008,09,17,03,02,14.90
2008,09,17,03,03,14.80
2008,09,17,03,04,14.80
2008,09,17,03,05,14.80
2008,09,17,03,06,14.70
2008,09,17,03,07,14.70
2008,09,17,03,08,14.60
2008,09,17,03,09,14.60
2008,09,17,03,10,14.60
2008,09,17,03,11,14.50
2008,09,17,03,12,14.50
2008,09,17,03,13,14.40
2008,09,17,03,14,14.40
2008,09,17,03,15,14.40
2008,09,17,03,16,14.30
2008,09,17,03,17,14.30
2008,09,17,03,18,14.30
2008,09,17,03,19,14.20
2008,09,17,03,20,14.20
2008,09,17,03,21,14.20
2008,09,17,03,22,14.20
2008,09,17,03,23,14.10
2008,09,17,03,24,14.10
2008,09,17,03,25,14.10
2008,09,17,03,26,14.10
2008,09,17,03,27,14.10
2008,09,17,03,28,14.10
2008,09,17,03,29,14.00
2008,09,17,03,30,14.00
2008,09,17,03,31,14.00
2008,09,17,03,32,13.90
2008,09,17,03,33,13.90
2008,09,17,03,34,13.90
2008,09,17,03,35,13.90
2008,09,17,03,36,13.90
2008,09,17,03,37,13.80
2008,09,17,03,38,13.80
2008,09,17,03,39,13.80
2008,09,17,03,40,13.80
2008,09,17,03,41,13.80
2008,09,17,03,42,13.80
2008,09,17,03,43,13.70
2008,09,17,03,44,13.70
2008,09,17,03,45,13.70
2008,09,17,03,46,13.70
2008,09,17,03,47,13.70
2008,09,17,03,48,13.70
2008,09,17,03,49,13.60
2008,09,17,03,50,13.60
2008,09,17,03,51,13.60
2008,09,17,03,52,13.60
2008,09,17,03,53,13.60
2008,09,17,03,54,13.60
2008,09,17,03,55,13.60
2008,09,17,03,56,13.50
2008,09,17,03,57,13.50
2008,09,17,03,58,13.40
2008,09,17,03,59,13.40
2008,09,17,04,00,13.40
2008,09,17,04,01,13.40
2008,09,17,04,02,13.40
2008,09,17,04,03,13.40
2008,09,17,04,04,13.30
2008,09,17,04,05,13.30
2008,09,17,04,06,13.30
2008,09,17,04,07,13.30
2008,09,17,04,08,13.30
2008,09,17,04,09,13.30
2008,09,17,04,10,13.30
2008,09,17,04,11,13.30
2008,09,17,04,12,13.20
2008,09,17,04,13,13.20
2008,09,17,04,14,13.20
2008,09,17,04,15,13.20
2008,09,17,04,16,13.20
2008,09,17,04,17,13.20
2008,09,17,04,18,13.20
2008,09,17,04,19,13.20
2008,09,17,04,20,13.20
2008,09,17,04,21,13.20
2008,09,17,04,22,13.20
2008,09,17,04,23,13.20
2008,09,17,04,24,13.10
2008,09,17,04,25,13.10
2008,09,17,04,26,13.20
2008,09,17,04,27,13.10
2008,09,17,04,28,13.10
2008,09,17,04,29,13.10
2008,09,17,04,30,13.20
2008,09,17,04,31,13.20
2008,09,17,04,32,13.10
2008,09,17,04,33,13.10
2008,09,17,04,34,13.10
2008,09,17,04,35,13.20
2008,09,17,04,36,13.20
2008,09,17,04,37,13.10
2008,09,17,04,38,13.10
2008,09,17,04,39,13.10
2008,09,17,04,40,13.10
2008,09,17,04,41,13.10
2008,09,17,04,42,13.10
2008,09,17,04,43,13.00
2008,09,17,04,44,13.00
2008,09,17,04,45,13.00
2008,09,17,04,46,13.00
2008,09,17,04,47,13.00
2008,09,17,04,48,12.90
2008,09,17,04,49,12.90
2008,09,17,04,50,12.90
2008,09,17,04,51,12.90
2008,09,17,04,52,12.90
2008,09,17,04,53,12.90
2008,09,17,04,54,12.90
2008,09,17,04,55,12.90
2008,09,17,04,56,12.90
2008,09,17,04,57,12.90
2008,09,17,04,58,12.90
2008,09,17,04,59,12.80
2008,09,17,05,00,12.80
2008,09,17,05,01,12.80
2008,09,17,05,02,12.80
2008,09,17,05,03,12.80
2008,09,17,05,04,12.80
2008,09,17,05,05,12.80
2008,09,17,05,06,12.70
2008,09,17,05,07,12.70
2008,09,17,05,08,12.70
2008,09,17,05,09,12.70
2008,09,17,05,10,12.60
2008,09,17,05,11,12.60
2008,09,17,05,12,12.60
2008,09,17,05,13,12.60
2008,09,17,05,14,12.60
2008,09,17,05,15,12.60
2008,09,17,05,16,12.60
2008,09,17,05,17,12.60
2008,09,17,05,18,12.60
2008,09,17,05,19,12.60
2008,09,17,05,20,12.60
2008,09,17,05,21,12.60
2008,09,17,05,22,12.60
2008,09,17,05,23,12.50
2008,09,17,05,24,12.50
2008,09,17,05,25,12.50
2008,09,17,05,26,12.50
2008,09,17,05,27,12.50
2008,09,17,05,28,12.50
2008,09,17,05,29,12.50
2008,09,17,05,30,12.50
2008,09,17,05,31,12.50
2008,09,17,05,32,12.50
2008,09,17,05,33,12.50
2008,09,17,05,34,12.50
2008,09,17,05,35,12.50
2008,09,17,05,36,12.60
2008,09,17,05,37,12.60
2008,09,17,05,38,12.60
2008,09,17,05,39,12.60
2008,09,17,05,40,12.60
2008,09,17,05,41,12.60
2008,09,17,05,42,12.60
2008,09,17,05,43,12.60
2008,09,17,05,44,12.60
2008,09,17,05,45,12.60
2008,09,17,05,46,12.60
2008,09,17,05,47,12.60
2008,09,17,05,48,12.60
2008,09,17,05,49,12.60
2008,09,17,05,50,12.60
2008,09,17,05,51,12.60
2008,09,17,05,52,12.60
2008,09,17,05,53,12.60
2008,09,17,05,54,12.60
2008,09,17,05,55,12.60
2008,09,17,05,56,12.60
2008,09,17,05,57,12.60
2008,09,17,05,58,12.50
2008,09,17,05,59,12.50
2008,09,17,06,00,12.50
2008,09,17,06,01,12.50
2008,09,17,06,02,12.50
2008,09,17,06,03,12.40
2008,09,17,06,04,12.40
2008,09,17,06,05,12.40
2008,09,17,06,06,12.40
2008,09,17,06,07,12.40
2008,09,17,06,08,12.40
2008,09,17,06,09,12.30
2008,09,17,06,10,12.30
2008,09,17,06,11,12.30
2008,09,17,06,12,12.30
2008,09,17,06,13,12.30
2008,09,17,06,14,12.30
2008,09,17,06,15,12.20
2008,09,17,06,16,12.20
2008,09,17,06,17,12.20
2008,09,17,06,18,12.20
2008,09,17,06,19,12.20
2008,09,17,06,20,12.20
2008,09,17,06,21,12.20
2008,09,17,06,22,12.20
2008,09,17,06,23,12.20
2008,09,17,06,24,12.20
2008,09,17,06,25,12.20
2008,09,17,06,26,12.20
2008,09,17,06,27,12.20
2008,09,17,06,28,12.20
2008,09,17,06,29,12.20
2008,09,17,06,30,12.20
2008,09,17,06,31,12.20
2008,09,17,06,32,12.20
2008,09,17,06,33,12.20
2008,09,17,06,34,12.20
2008,09,17,06,35,12.20
2008,09,17,06,36,12.20
2008,09,17,06,37,12.20
2008,09,17,06,38,12.20
2008,09,17,06,39,12.20
2008,09,17,06,40,12.30
2008,09,17,06,41,12.30
2008,09,17,06,42,12.30
2008,09,17,06,43,12.30
2008,09,17,06,44,12.30
2008,09,17,06,45,12.30
2008,09,17,06,46,12.30
2008,09,17,06,47,12.30
2008,09,17,06,48,12.30
2008,09,17,06,49,12.30
2008,09,17,06,50,12.30
2008,09,17,06,51,12.30
2008,09,17,06,52,12.30
2008,09,17,06,53,12.30
2008,09,17,06,54,12.30
2008,09,17,06,55,12.30
2008,09,17,06,56,12.30
2008,09,17,06,57,12.40
2008,09,17,06,58,12.40
2008,09,17,06,59,12.30
2008,09,17,07,00,12.40
2008,09,17,07,01,12.40
2008,09,17,07,02,12.40
2008,09,17,07,03,12.40
2008,09,17,07,04,12.40
2008,09,17,07,05,12.40
2008,09,17,07,06,12.40
2008,09,17,07,07,12.40
2008,09,17,07,08,12.40
2008,09,17,07,09,12.40
2008,09,17,07,10,12.40
2008,09,17,07,11,12.40
2008,09,17,07,12,12.40
2008,09,17,07,13,12.40
2008,09,17,07,14,12.40
2008,09,17,07,15,12.40
2008,09,17,07,16,12.40
2008,09,17,07,17,12.40
2008,09,17,07,18,12.40
2008,09,17,07,19,12.40
2008,09,17,07,20,12.40
2008,09,17,07,21,12.40
2008,09,17,07,22,12.50
2008,09,17,07,23,12.60
2008,09,17,07,24,12.60
2008,09,17,07,25,12.70
2008,09,17,07,26,12.70
2008,09,17,07,27,12.80
2008,09,17,07,28,12.80
2008,09,17,07,29,12.90
2008,09,17,07,30,13.00
2008,09,17,07,31,13.10
2008,09,17,07,32,13.10
2008,09,17,07,33,13.20
2008,09,17,07,34,13.30
2008,09,17,07,35,13.40
2008,09,17,07,36,13.40
2008,09,17,07,37,13.40
2008,09,17,07,38,13.50
2008,09,17,07,39,13.60
2008,09,17,07,40,13.60
2008,09,17,07,41,13.70
2008,09,17,07,42,13.80
2008,09,17,07,43,13.80
2008,09,17,07,44,13.90
2008,09,17,07,45,13.90
2008,09,17,07,46,14.00
2008,09,17,07,47,14.00
2008,09,17,07,48,14.10
2008,09,17,07,49,14.20
2008,09,17,07,50,14.20
2008,09,17,07,51,14.30
2008,09,17,07,52,14.30
2008,09,17,07,53,14.30
2008,09,17,07,54,14.40
2008,09,17,07,55,14.40
2008,09,17,07,56,14.40
2008,09,17,07,57,14.40
2008,09,17,07,58,14.50
2008,09,17,07,59,14.50
2008,09,17,08,00,14.50
2008,09,17,08,01,14.50
2008,09,17,08,02,14.50
2008,09,17,08,03,14.50
2008,09,17,08,04,14.60
2008,09,17,08,05,14.60
2008,09,17,08,06,14.60
2008,09,17,08,07,14.70
2008,09,17,08,08,14.70
2008,09,17,08,09,14.70
2008,09,17,08,10,14.70
2008,09,17,08,11,14.70
2008,09,17,08,12,14.70
2008,09,17,08,13,14.80
2008,09,17,08,14,14.80
2008,09,17,08,15,14.80
2008,09,17,08,16,14.80
2008,09,17,08,17,14.80
2008,09,17,08,18,14.80
2008,09,17,08,19,14.80
2008,09,17,08,20,14.90
2008,09,17,08,21,15.00
2008,09,17,08,22,15.00
2008,09,17,08,23,15.00
2008,09,17,08,24,15.00
2008,09,17,08,25,15.00
2008,09,17,08,26,15.10
2008,09,17,08,27,15.20
2008,09,17,08,28,15.30
2008,09,17,08,29,15.30
2008,09,17,08,30,15.40
2008,09,17,08,31,15.50
2008,09,17,08,32,15.50
2008,09,17,08,33,15.60
2008,09,17,08,34,15.60
2008,09,17,08,35,15.60
2008,09,17,08,36,15.60
2008,09,17,08,37,15.70
2008,09,17,08,38,15.70
2008,09,17,08,39,15.70
2008,09,17,08,40,15.70
2008,09,17,08,41,15.70
2008,09,17,08,42,15.80
2008,09,17,08,43,15.80
2008,09,17,08,44,15.80
2008,09,17,08,45,15.90
2008,09,17,08,46,16.00
2008,09,17,08,47,16.00
2008,09,17,08,48,16.00
2008,09,17,08,49,16.00
2008,09,17,08,50,16.10
2008,09,17,08,51,16.10
2008,09,17,08,52,16.10
2008,09,17,08,53,16.10
2008,09,17,08,54,16.10
2008,09,17,08,55,16.10
2008,09,17,08,56,16.10
2008,09,17,08,57,16.10
2008,09,17,08,58,16.20
2008,09,17,08,59,16.20
2008,09,17,09,00,16.30
2008,09,17,09,01,16.30
2008,09,17,09,02,16.40
2008,09,17,09,03,16.40
2008,09,17,09,04,16.50
2008,09,17,09,05,16.60
2008,09,17,09,06,16.60
2008,09,17,09,07,16.60
2008,09,17,09,08,16.70
2008,09,17,09,09,16.80
2008,09,17,09,10,16.80
2008,09,17,09,11,16.90
2008,09,17,09,12,16.90
2008,09,17,09,13,17.00
2008,09,17,09,14,17.10
2008,09,17,09,15,17.20
2008,09,17,09,16,17.30
2008,09,17,09,17,17.40
2008,09,17,09,18,17.50
2008,09,17,09,19,17.50
2008,09,17,09,20,17.60
2008,09,17,09,21,17.60
2008,09,17,09,22,17.70
2008,09,17,09,23,17.70
2008,09,17,09,24,17.70
2008,09,17,09,25,17.70
2008,09,17,09,26,17.60
2008,09,17,09,27,17.60
2008,09,17,09,28,17.60
2008,09,17,09,29,17.60
2008,09,17,09,30,17.60
2008,09,17,09,31,17.60
2008,09,17,09,32,17.60
2008,09,17,09,33,17.60
2008,09,17,09,34,17.60
2008,09,17,09,35,17.60
2008,09,17,09,36,17.60
2008,09,17,09,37,17.50
2008,09,17,09,38,17.50
2008,09,17,09,39,17.50
2008,09,17,09,40,17.40
2008,09,17,09,41,17.40
2008,09,17,09,42,17.30
2008,09,17,09,43,17.20
2008,09,17,09,44,17.20
2008,09,17,09,45,17.10
2008,09,17,09,46,17.10
2008,09,17,09,47,17.00
2008,09,17,09,48,17.10
2008,09,17,09,49,17.10
2008,09,17,09,50,17.10
2008,09,17,09,51,17.10
2008,09,17,09,52,17.20
2008,09,17,09,53,17.30
2008,09,17,09,54,17.30
2008,09,17,09,55,17.40
2008,09,17,09,56,17.50
2008,09,17,09,57,17.60
2008,09,17,09,58,17.60
2008,09,17,09,59,17.70
2008,09,17,10,00,17.80
2008,09,17,10,01,17.90
2008,09,17,10,02,18.00
2008,09,17,10,03,18.10
2008,09,17,10,04,18.30
2008,09,17,10,05,18.40
2008,09,17,10,06,18.50
2008,09,17,10,07,18.60
2008,09,17,10,08,18.70
2008,09,17,10,09,18.80
2008,09,17,10,10,18.90
2008,09,17,10,11,19.00
2008,09,17,10,12,19.00
2008,09,17,10,13,19.10
2008,09,17,10,14,19.10
2008,09,17,10,15,19.10
2008,09,17,10,16,19.20
2008,09,17,10,17,19.20
2008,09,17,10,18,19.20
2008,09,17,10,19,19.30
2008,09,17,10,20,19.30
2008,09,17,10,21,19.30
2008,09,17,10,22,19.30
2008,09,17,10,23,19.40
2008,09,17,10,24,19.40
2008,09,17,10,25,19.40
2008,09,17,10,26,19.50
2008,09,17,10,27,19.60
2008,09,17,10,28,19.60
2008,09,17,10,29,19.70
2008,09,17,10,30,19.70
2008,09,17,10,31,19.80
2008,09,17,10,32,19.80
2008,09,17,10,33,19.90
2008,09,17,10,34,19.90
2008,09,17,10,35,19.90
2008,09,17,10,36,20.00
2008,09,17,10,37,20.00
2008,09,17,10,38,20.10
2008,09,17,10,39,20.20
2008,09,17,10,40,20.20
2008,09,17,10,41,20.30
2008,09,17,10,42,20.30
2008,09,17,10,43,20.40
2008,09,17,10,44,20.50
2008,09,17,10,45,20.60
2008,09,17,10,46,20.60
2008,09,17,10,47,20.70
2008,09,17,10,48,20.70
2008,09,17,10,49,20.80
2008,09,17,10,50,20.80
2008,09,17,10,51,20.90
2008,09,17,10,52,21.00
2008,09,17,10,53,21.00
2008,09,17,10,54,21.10
2008,09,17,10,55,21.10
2008,09,17,10,56,21.00
2008,09,17,10,57,21.00
2008,09,17,10,58,21.00
2008,09,17,10,59,20.90
2008,09,17,11,00,21.00
2008,09,17,11,01,21.00
2008,09,17,11,02,21.00
2008,09,17,11,03,21.10
2008,09,17,11,04,21.10
2008,09,17,11,05,21.10
2008,09,17,11,06,21.20
2008,09,17,11,07,21.20
2008,09,17,11,08,21.20
2008,09,17,11,09,21.30
2008,09,17,11,10,21.40
2008,09,17,11,11,21.40
2008,09,17,11,12,21.50
2008,09,17,11,13,21.60
2008,09,17,11,14,21.50
2008,09,17,11,15,21.60
2008,09,17,11,16,21.60
2008,09,17,11,17,21.70
2008,09,17,11,18,21.70
2008,09,17,11,19,21.80
2008,09,17,11,20,21.80
2008,09,17,11,21,21.90
2008,09,17,11,22,21.90
2008,09,17,11,23,21.90
2008,09,17,11,24,21.90
2008,09,17,11,25,21.90
2008,09,17,11,26,21.80
2008,09,17,11,27,21.80
2008,09,17,11,28,21.80
2008,09,17,11,29,21.70
2008,09,17,11,30,21.60
2008,09,17,11,31,21.50
2008,09,17,11,32,21.40
2008,09,17,11,33,21.40
2008,09,17,11,34,21.30
2008,09,17,11,35,21.30
2008,09,17,11,36,21.30
2008,09,17,11,37,21.30
2008,09,17,11,38,21.30
2008,09,17,11,39,21.30
2008,09,17,11,40,21.40
2008,09,17,11,41,21.40
2008,09,17,11,42,21.40
2008,09,17,11,43,21.40
2008,09,17,11,44,21.50
2008,09,17,11,45,21.60
2008,09,17,11,46,21.60
2008,09,17,11,47,21.70
2008,09,17,11,48,21.80
2008,09,17,11,49,21.80
2008,09,17,11,50,21.90
2008,09,17,11,51,22.00
2008,09,17,11,52,22.00
2008,09,17,11,53,22.00
2008,09,17,11,54,22.00
2008,09,17,11,55,22.00
2008,09,17,11,56,22.10
2008,09,17,11,57,22.10
2008,09,17,11,58,22.10
2008,09,17,11,59,22.10
2008,09,17,12,00,22.10
2008,09,17,12,01,22.10
2008,09,17,12,02,22.10
2008,09,17,12,03,22.10
2008,09,17,12,04,22.10
2008,09,17,12,05,22.20
2008,09,17,12,06,22.30
2008,09,17,12,07,22.30
2008,09,17,12,08,22.30
2008,09,17,12,09,22.40
2008,09,17,12,10,22.50
2008,09,17,12,11,22.50
2008,09,17,12,12,22.60
2008,09,17,12,13,22.60
2008,09,17,12,14,22.60
2008,09,17,12,15,22.70
2008,09,17,12,16,22.70
2008,09,17,12,17,22.70
2008,09,17,12,18,22.70
2008,09,17,12,19,22.80
2008,09,17,12,20,22.80
2008,09,17,12,21,22.80
2008,09,17,12,22,22.90
2008,09,17,12,23,22.90
2008,09,17,12,24,23.00
2008,09,17,12,25,23.10
2008,09,17,12,26,23.10
2008,09,17,12,27,23.10
2008,09,17,12,28,23.10
2008,09,17,12,29,23.10
2008,09,17,12,30,23.20
2008,09,17,12,31,23.20
2008,09,17,12,32,23.30
2008,09,17,12,33,23.30
2008,09,17,12,34,23.40
2008,09,17,12,35,23.50
2008,09,17,12,36,23.50
2008,09,17,12,37,23.60
2008,09,17,12,38,23.60
2008,09,17,12,39,23.60
2008,09,17,12,40,23.60
2008,09,17,12,41,23.70
2008,09,17,12,42,23.60
2008,09,17,12,43,23.60
2008,09,17,12,44,23.60
2008,09,17,12,45,23.40
2008,09,17,12,46,23.30
2008,09,17,12,47,23.20
2008,09,17,12,48,23.10
2008,09,17,12,49,22.90
2008,09,17,12,50,22.80
2008,09,17,12,51,22.60
2008,09,17,12,52,22.50
2008,09,17,12,53,22.30
2008,09,17,12,54,22.30
2008,09,17,12,55,22.30
2008,09,17,12,56,22.20
2008,09,17,12,57,22.10
2008,09,17,12,58,22.00
2008,09,17,12,59,22.00
2008,09,17,13,00,21.90
2008,09,17,13,01,21.90
2008,09,17,13,02,21.90
2008,09,17,13,03,21.90
2008,09,17,13,04,21.90
2008,09,17,13,05,21.90
2008,09,17,13,06,21.80
2008,09,17,13,07,21.80
2008,09,17,13,08,21.80
2008,09,17,13,09,21.90
2008,09,17,13,10,22.00
2008,09,17,13,11,22.00
2008,09,17,13,12,22.10
2008,09,17,13,13,22.20
2008,09,17,13,14,22.20
2008,09,17,13,15,22.20
2008,09,17,13,16,22.30
2008,09,17,13,17,22.30
2008,09,17,13,18,22.40
2008,09,17,13,19,22.40
2008,09,17,13,20,22.40
2008,09,17,13,21,22.40
2008,09,17,13,22,22.40
2008,09,17,13,23,22.40
2008,09,17,13,24,22.40
2008,09,17,13,25,22.30
2008,09,17,13,26,22.30
2008,09,17,13,27,22.30
2008,09,17,13,28,22.20
2008,09,17,13,29,22.20
2008,09,17,13,30,22.20
2008,09,17,13,31,22.10
2008,09,17,13,32,22.10
2008,09,17,13,33,22.10
2008,09,17,13,34,22.10
2008,09,17,13,35,22.00
2008,09,17,13,36,22.00
2008,09,17,13,37,21.90
2008,09,17,13,38,21.90
2008,09,17,13,39,21.80
2008,09,17,13,40,21.80
2008,09,17,13,41,21.80
2008,09,17,13,42,21.80
2008,09,17,13,43,21.90
2008,09,17,13,44,21.90
2008,09,17,13,45,22.00
2008,09,17,13,46,22.10
2008,09,17,13,47,22.20
2008,09,17,13,48,22.30
2008,09,17,13,49,22.40
2008,09,17,13,50,22.40
2008,09,17,13,51,22.40
2008,09,17,13,52,22.40
2008,09,17,13,53,22.40
2008,09,17,13,54,22.30
2008,09,17,13,55,22.20
2008,09,17,13,56,22.20
2008,09,17,13,57,22.10
2008,09,17,13,58,22.10
2008,09,17,13,59,22.10
2008,09,17,14,00,22.10
2008,09,17,14,01,22.10
2008,09,17,14,02,22.20
2008,09,17,14,03,22.20
2008,09,17,14,04,22.10
2008,09,17,14,05,22.10
2008,09,17,14,06,22.00
2008,09,17,14,07,22.00
2008,09,17,14,08,21.90
2008,09,17,14,09,21.80
2008,09,17,14,10,21.80
2008,09,17,14,11,21.80
2008,09,17,14,12,21.80
2008,09,17,14,13,21.80
2008,09,17,14,14,21.80
2008,09,17,14,15,21.90
2008,09,17,14,16,22.00
2008,09,17,14,17,22.00
2008,09,17,14,18,22.00
2008,09,17,14,19,22.10
2008,09,17,14,20,22.10
2008,09,17,14,21,22.20
2008,09,17,14,22,22.20
2008,09,17,14,23,22.30
2008,09,17,14,24,22.30
2008,09,17,14,25,22.30
2008,09,17,14,26,22.20
2008,09,17,14,27,22.20
2008,09,17,14,28,22.10
2008,09,17,14,29,22.10
2008,09,17,14,30,22.00
2008,09,17,14,31,22.00
2008,09,17,14,32,22.00
2008,09,17,14,33,22.00
2008,09,17,14,34,22.10
2008,09,17,14,35,22.00
2008,09,17,14,36,22.10
2008,09,17,14,37,22.10
2008,09,17,14,38,22.10
2008,09,17,14,39,22.10
2008,09,17,14,40,22.10
2008,09,17,14,41,22.00
2008,09,17,14,42,22.00
2008,09,17,14,43,22.00
2008,09,17,14,44,22.00
2008,09,17,14,45,22.00
2008,09,17,14,46,22.10
2008,09,17,14,47,22.10
2008,09,17,14,48,22.20
2008,09,17,14,49,22.30
2008,09,17,14,50,22.30
2008,09,17,14,51,22.30
2008,09,17,14,52,22.30
2008,09,17,14,53,22.30
2008,09,17,14,54,22.30
2008,09,17,14,55,22.30
2008,09,17,14,56,22.40
2008,09,17,14,57,22.40
2008,09,17,14,58,22.40
2008,09,17,14,59,22.30
2008,09,17,15,00,22.40
2008,09,17,15,01,22.40
2008,09,17,15,02,22.30
2008,09,17,15,03,22.30
2008,09,17,15,04,22.30
2008,09,17,15,05,22.20
2008,09,17,15,06,22.20
2008,09,17,15,07,22.20
2008,09,17,15,08,22.20
2008,09,17,15,09,22.20
2008,09,17,15,10,22.20
2008,09,17,15,11,22.20
2008,09,17,15,12,22.20
2008,09,17,15,13,22.20
2008,09,17,15,14,22.20
2008,09,17,15,15,22.20
2008,09,17,15,16,22.30
2008,09,17,15,17,22.40
2008,09,17,15,18,22.40
2008,09,17,15,19,22.30
2008,09,17,15,20,22.10
2008,09,17,15,21,21.80
2008,09,17,15,22,21.60
2008,09,17,15,23,21.50
2008,09,17,15,24,21.30
2008,09,17,15,25,21.30
2008,09,17,15,26,21.30
2008,09,17,15,27,21.30
2008,09,17,15,28,21.30
2008,09,17,15,29,21.40
2008,09,17,15,30,21.40
2008,09,17,15,31,21.50
2008,09,17,15,32,21.50
2008,09,17,15,33,21.40
2008,09,17,15,34,21.40
2008,09,17,15,35,21.30
2008,09,17,15,36,21.20
2008,09,17,15,37,21.10
2008,09,17,15,38,21.00
2008,09,17,15,39,20.90
2008,09,17,15,40,20.90
2008,09,17,15,41,20.90
2008,09,17,15,42,20.90
2008,09,17,15,43,20.90
2008,09,17,15,44,20.90
2008,09,17,15,45,20.90
2008,09,17,15,46,20.80
2008,09,17,15,47,20.80
2008,09,17,15,48,20.80
2008,09,17,15,49,20.70
2008,09,17,15,50,20.60
2008,09,17,15,51,20.50
2008,09,17,15,52,20.40
2008,09,17,15,53,20.40
2008,09,17,15,54,20.40
2008,09,17,15,55,20.50
2008,09,17,15,56,20.50
2008,09,17,15,57,20.60
2008,09,17,15,58,20.60
2008,09,17,15,59,20.70
2008,09,17,16,00,20.70
2008,09,17,16,01,20.70
2008,09,17,16,02,20.70
2008,09,17,16,03,20.60
2008,09,17,16,04,20.50
2008,09,17,16,05,20.40
2008,09,17,16,06,20.40
2008,09,17,16,07,20.40
2008,09,17,16,08,20.40
2008,09,17,16,09,20.40
2008,09,17,16,10,20.40
2008,09,17,16,11,20.40
2008,09,17,16,12,20.50
2008,09,17,16,13,20.50
2008,09,17,16,14,20.50
2008,09,17,16,15,20.60
2008,09,17,16,16,20.60
2008,09,17,16,17,20.70
2008,09,17,16,18,20.70
2008,09,17,16,19,20.80
2008,09,17,16,20,20.80
2008,09,17,16,21,20.80
2008,09,17,16,22,20.80
2008,09,17,16,23,20.80
2008,09,17,16,24,20.70
2008,09,17,16,25,20.60
2008,09,17,16,26,20.60
2008,09,17,16,27,20.50
2008,09,17,16,28,20.40
2008,09,17,16,29,20.30
2008,09,17,16,30,20.10
2008,09,17,16,31,20.00
2008,09,17,16,32,19.90
2008,09,17,16,33,19.80
2008,09,17,16,34,19.70
2008,09,17,16,35,19.50
2008,09,17,16,36,19.40
2008,09,17,16,37,19.30
2008,09,17,16,38,19.10
2008,09,17,16,39,19.00
2008,09,17,16,40,19.00
2008,09,17,16,41,18.90
2008,09,17,16,42,18.90
2008,09,17,16,43,18.90
2008,09,17,16,44,18.90
2008,09,17,16,45,18.90
2008,09,17,16,46,18.90
2008,09,17,16,47,18.90
2008,09,17,16,48,18.90
2008,09,17,16,49,18.80
2008,09,17,16,50,18.70
2008,09,17,16,51,18.70
2008,09,17,16,52,18.70
2008,09,17,16,53,18.70
2008,09,17,16,54,18.70
2008,09,17,16,55,18.70
2008,09,17,16,56,18.80
2008,09,17,16,57,18.80
2008,09,17,16,58,18.80
2008,09,17,16,59,18.80
2008,09,17,17,00,18.90
2008,09,17,17,01,18.90
2008,09,17,17,02,18.90
2008,09,17,17,03,19.00
2008,09,17,17,04,19.00
2008,09,17,17,05,19.10
2008,09,17,17,06,19.10
2008,09,17,17,07,19.10
2008,09,17,17,08,19.20
2008,09,17,17,09,19.20
2008,09,17,17,10,19.20
2008,09,17,17,11,19.30
2008,09,17,17,12,19.30
2008,09,17,17,13,19.30
2008,09,17,17,14,19.30
2008,09,17,17,15,19.30
2008,09,17,17,16,19.40
2008,09,17,17,17,19.40
2008,09,17,17,18,19.40
2008,09,17,17,19,19.40